Year,Month,Day,Hour,Minute,Value (Times are PST for temperature in C)
2007,06,25,00,00,10.90
2007,06,25,00,01,10.90
2007,06,25,00,02,10.90
2007,06,25,00,03,11.00
2007,06,25,00,04,11.10
2007,06,25,00,05,11.10
2007,06,25,00,06,11.10
2007,06,25,00,07,11.10
2007,06,25,00,08,11.10
2007,06,25,00,09,11.10
2007,06,25,00,10,11.10
2007,06,25,00,11,11.10
2007,06,25,00,12,11.10
2007,06,25,00,13,11.00
2007,06,25,00,14,11.00
2007,06,25,00,15,11.00
2007,06,25,00,16,10.90
2007,06,25,00,17,10.90
2007,06,25,00,18,10.90
2007,06,25,00,19,10.90
2007,06,25,00,20,10.80
2007,06,25,00,21,10.80
2007,06,25,00,22,10.80
2007,06,25,00,23,10.80
2007,06,25,00,24,10.80
2007,06,25,00,25,10.80
2007,06,25,00,26,10.80
2007,06,25,00,27,10.70
2007,06,25,00,28,10.70
2007,06,25,00,29,10.70
2007,06,25,00,30,10.70
2007,06,25,00,31,10.70
2007,06,25,00,32,10.60
2007,06,25,00,33,10.60
2007,06,25,00,34,10.60
2007,06,25,00,35,10.50
2007,06,25,00,36,10.50
2007,06,25,00,37,10.50
2007,06,25,00,38,10.50
2007,06,25,00,39,10.40
2007,06,25,00,40,10.40
2007,06,25,00,41,10.40
2007,06,25,00,42,10.50
2007,06,25,00,43,10.50
2007,06,25,00,44,10.50
2007,06,25,00,45,10.50
2007,06,25,00,46,10.50
2007,06,25,00,47,10.40
2007,06,25,00,48,10.40
2007,06,25,00,49,10.40
2007,06,25,00,50,10.40
2007,06,25,00,51,10.40
2007,06,25,00,52,10.40
2007,06,25,00,53,10.40
2007,06,25,00,54,10.40
2007,06,25,00,55,10.40
2007,06,25,00,56,10.40
2007,06,25,00,57,10.40
2007,06,25,00,58,10.40
2007,06,25,00,59,10.40
2007,06,25,01,00,10.40
2007,06,25,01,01,10.40
2007,06,25,01,02,10.40
2007,06,25,01,03,10.30
2007,06,25,01,04,10.30
2007,06,25,01,05,10.30
2007,06,25,01,06,10.40
2007,06,25,01,07,10.40
2007,06,25,01,08,10.40
2007,06,25,01,09,10.40
2007,06,25,01,10,10.40
2007,06,25,01,11,10.40
2007,06,25,01,12,10.40
2007,06,25,01,13,10.40
2007,06,25,01,14,10.40
2007,06,25,01,15,10.40
2007,06,25,01,16,10.40
2007,06,25,01,17,10.40
2007,06,25,01,18,10.40
2007,06,25,01,19,10.40
2007,06,25,01,20,10.40
2007,06,25,01,21,10.40
2007,06,25,01,22,10.30
2007,06,25,01,23,10.30
2007,06,25,01,24,10.30
2007,06,25,01,25,10.30
2007,06,25,01,26,10.20
2007,06,25,01,27,10.20
2007,06,25,01,28,10.20
2007,06,25,01,29,10.20
2007,06,25,01,30,10.20
2007,06,25,01,31,10.20
2007,06,25,01,32,10.20
2007,06,25,01,33,10.20
2007,06,25,01,34,10.20
2007,06,25,01,35,10.20
2007,06,25,01,36,10.20
2007,06,25,01,37,10.10
2007,06,25,01,38,10.10
2007,06,25,01,39,10.10
2007,06,25,01,40,10.10
2007,06,25,01,41,10.00
2007,06,25,01,42,10.00
2007,06,25,01,43,10.00
2007,06,25,01,44,9.90
2007,06,25,01,45,9.90
2007,06,25,01,46,9.90
2007,06,25,01,47,9.80
2007,06,25,01,48,9.80
2007,06,25,01,49,9.70
2007,06,25,01,50,9.70
2007,06,25,01,51,9.70
2007,06,25,01,52,9.60
2007,06,25,01,53,9.60
2007,06,25,01,54,9.60
2007,06,25,01,55,9.60
2007,06,25,01,56,9.60
2007,06,25,01,57,9.60
2007,06,25,01,58,9.60
2007,06,25,01,59,9.60
2007,06,25,02,00,9.60
2007,06,25,02,01,9.60
2007,06,25,02,02,9.50
2007,06,25,02,03,9.50
2007,06,25,02,04,9.50
2007,06,25,02,05,9.40
2007,06,25,02,06,9.40
2007,06,25,02,07,9.40
2007,06,25,02,08,9.30
2007,06,25,02,09,9.30
2007,06,25,02,10,9.20
2007,06,25,02,11,9.20
2007,06,25,02,12,9.20
2007,06,25,02,13,9.20
2007,06,25,02,14,9.20
2007,06,25,02,15,9.10
2007,06,25,02,16,9.10
2007,06,25,02,17,9.10
2007,06,25,02,18,9.10
2007,06,25,02,19,9.00
2007,06,25,02,20,9.00
2007,06,25,02,21,9.00
2007,06,25,02,22,8.90
2007,06,25,02,23,8.90
2007,06,25,02,24,8.90
2007,06,25,02,25,8.90
2007,06,25,02,26,8.90
2007,06,25,02,27,8.80
2007,06,25,02,28,8.90
2007,06,25,02,29,8.80
2007,06,25,02,30,8.90
2007,06,25,02,31,8.90
2007,06,25,02,32,8.90
2007,06,25,02,33,8.90
2007,06,25,02,34,8.90
2007,06,25,02,35,8.90
2007,06,25,02,36,8.90
2007,06,25,02,37,8.90
2007,06,25,02,38,8.90
2007,06,25,02,39,8.90
2007,06,25,02,40,8.90
2007,06,25,02,41,8.90
2007,06,25,02,42,8.90
2007,06,25,02,43,8.90
2007,06,25,02,44,8.90
2007,06,25,02,45,8.90
2007,06,25,02,46,8.90
2007,06,25,02,47,8.90
2007,06,25,02,48,8.90
2007,06,25,02,49,8.90
2007,06,25,02,50,8.90
2007,06,25,02,51,8.90
2007,06,25,02,52,8.80
2007,06,25,02,53,8.80
2007,06,25,02,54,8.80
2007,06,25,02,55,8.70
2007,06,25,02,56,8.60
2007,06,25,02,57,8.60
2007,06,25,02,58,8.50
2007,06,25,02,59,8.50
2007,06,25,03,00,8.40
2007,06,25,03,01,8.40
2007,06,25,03,02,8.30
2007,06,25,03,03,8.30
2007,06,25,03,04,8.30
2007,06,25,03,05,8.30
2007,06,25,03,06,8.30
2007,06,25,03,07,8.30
2007,06,25,03,08,8.30
2007,06,25,03,09,8.30
2007,06,25,03,10,8.30
2007,06,25,03,11,8.30
2007,06,25,03,12,8.30
2007,06,25,03,13,8.30
2007,06,25,03,14,8.20
2007,06,25,03,15,8.20
2007,06,25,03,16,8.20
2007,06,25,03,17,8.20
2007,06,25,03,18,8.20
2007,06,25,03,19,8.20
2007,06,25,03,20,8.10
2007,06,25,03,21,8.10
2007,06,25,03,22,8.00
2007,06,25,03,23,8.00
2007,06,25,03,24,7.90
2007,06,25,03,25,7.90
2007,06,25,03,26,7.90
2007,06,25,03,27,7.80
2007,06,25,03,28,7.80
2007,06,25,03,29,7.80
2007,06,25,03,30,7.80
2007,06,25,03,31,7.80
2007,06,25,03,32,7.70
2007,06,25,03,33,7.70
2007,06,25,03,34,7.80
2007,06,25,03,35,7.80
2007,06,25,03,36,7.80
2007,06,25,03,37,7.80
2007,06,25,03,38,7.70
2007,06,25,03,39,7.80
2007,06,25,03,40,7.80
2007,06,25,03,41,7.90
2007,06,25,03,42,8.00
2007,06,25,03,43,8.10
2007,06,25,03,44,8.20
2007,06,25,03,45,8.40
2007,06,25,03,46,8.50
2007,06,25,03,47,8.60
2007,06,25,03,48,8.70
2007,06,25,03,49,8.80
2007,06,25,03,50,8.80
2007,06,25,03,51,8.80
2007,06,25,03,52,8.80
2007,06,25,03,53,8.80
2007,06,25,03,54,8.80
2007,06,25,03,55,8.70
2007,06,25,03,56,8.80
2007,06,25,03,57,8.90
2007,06,25,03,58,8.90
2007,06,25,03,59,9.00
2007,06,25,04,00,9.10
2007,06,25,04,01,9.10
2007,06,25,04,02,9.20
2007,06,25,04,03,9.20
2007,06,25,04,04,9.20
2007,06,25,04,05,9.20
2007,06,25,04,06,9.20
2007,06,25,04,07,9.20
2007,06,25,04,08,9.30
2007,06,25,04,09,9.30
2007,06,25,04,10,9.30
2007,06,25,04,11,9.30
2007,06,25,04,12,9.20
2007,06,25,04,13,9.20
2007,06,25,04,14,9.20
2007,06,25,04,15,9.20
2007,06,25,04,16,9.20
2007,06,25,04,17,9.20
2007,06,25,04,18,9.20
2007,06,25,04,19,9.20
2007,06,25,04,20,9.20
2007,06,25,04,21,9.30
2007,06,25,04,22,9.30
2007,06,25,04,23,9.30
2007,06,25,04,24,9.30
2007,06,25,04,25,9.30
2007,06,25,04,26,9.30
2007,06,25,04,27,9.30
2007,06,25,04,28,9.30
2007,06,25,04,29,9.30
2007,06,25,04,30,9.30
2007,06,25,04,31,9.40
2007,06,25,04,32,9.40
2007,06,25,04,33,9.40
2007,06,25,04,34,9.40
2007,06,25,04,35,9.50
2007,06,25,04,36,9.50
2007,06,25,04,37,9.40
2007,06,25,04,38,9.40
2007,06,25,04,39,9.40
2007,06,25,04,40,9.40
2007,06,25,04,41,9.40
2007,06,25,04,42,9.40
2007,06,25,04,43,9.40
2007,06,25,04,44,9.40
2007,06,25,04,45,9.40
2007,06,25,04,46,9.40
2007,06,25,04,47,9.40
2007,06,25,04,48,9.50
2007,06,25,04,49,9.50
2007,06,25,04,50,9.50
2007,06,25,04,51,9.50
2007,06,25,04,52,9.50
2007,06,25,04,53,9.60
2007,06,25,04,54,9.60
2007,06,25,04,55,9.60
2007,06,25,04,56,9.60
2007,06,25,04,57,9.50
2007,06,25,04,58,9.50
2007,06,25,04,59,9.50
2007,06,25,05,00,9.50
2007,06,25,05,01,9.40
2007,06,25,05,02,9.40
2007,06,25,05,03,9.40
2007,06,25,05,04,9.40
2007,06,25,05,05,9.30
2007,06,25,05,06,9.30
2007,06,25,05,07,9.30
2007,06,25,05,08,9.30
2007,06,25,05,09,9.30
2007,06,25,05,10,9.30
2007,06,25,05,11,9.30
2007,06,25,05,12,9.30
2007,06,25,05,13,9.20
2007,06,25,05,14,9.20
2007,06,25,05,15,9.20
2007,06,25,05,16,9.20
2007,06,25,05,17,9.10
2007,06,25,05,18,9.10
2007,06,25,05,19,9.10
2007,06,25,05,20,9.10
2007,06,25,05,21,9.10
2007,06,25,05,22,9.00
2007,06,25,05,23,9.00
2007,06,25,05,24,8.90
2007,06,25,05,25,8.90
2007,06,25,05,26,8.90
2007,06,25,05,27,8.90
2007,06,25,05,28,8.90
2007,06,25,05,29,8.90
2007,06,25,05,30,8.90
2007,06,25,05,31,8.90
2007,06,25,05,32,8.90
2007,06,25,05,33,8.90
2007,06,25,05,34,8.90
2007,06,25,05,35,8.90
2007,06,25,05,36,8.90
2007,06,25,05,37,8.90
2007,06,25,05,38,8.90
2007,06,25,05,39,9.00
2007,06,25,05,40,8.90
2007,06,25,05,41,8.90
2007,06,25,05,42,9.00
2007,06,25,05,43,9.00
2007,06,25,05,44,9.00
2007,06,25,05,45,9.00
2007,06,25,05,46,9.00
2007,06,25,05,47,9.00
2007,06,25,05,48,9.00
2007,06,25,05,49,9.00
2007,06,25,05,50,9.00
2007,06,25,05,51,9.00
2007,06,25,05,52,9.00
2007,06,25,05,53,9.00
2007,06,25,05,54,8.90
2007,06,25,05,55,8.90
2007,06,25,05,56,8.90
2007,06,25,05,57,8.90
2007,06,25,05,58,8.90
2007,06,25,05,59,8.90
2007,06,25,06,00,8.90
2007,06,25,06,01,8.90
2007,06,25,06,02,8.90
2007,06,25,06,03,9.00
2007,06,25,06,04,9.00
2007,06,25,06,05,9.00
2007,06,25,06,06,9.00
2007,06,25,06,07,9.00
2007,06,25,06,08,9.10
2007,06,25,06,09,9.10
2007,06,25,06,10,9.10
2007,06,25,06,11,9.10
2007,06,25,06,12,9.10
2007,06,25,06,13,9.10
2007,06,25,06,14,9.10
2007,06,25,06,15,9.10
2007,06,25,06,16,9.10
2007,06,25,06,17,9.10
2007,06,25,06,18,9.10
2007,06,25,06,19,9.20
2007,06,25,06,20,9.20
2007,06,25,06,21,9.20
2007,06,25,06,22,9.20
2007,06,25,06,23,9.20
2007,06,25,06,24,9.20
2007,06,25,06,25,9.20
2007,06,25,06,26,9.20
2007,06,25,06,27,9.20
2007,06,25,06,28,9.20
2007,06,25,06,29,9.20
2007,06,25,06,30,9.30
2007,06,25,06,31,9.30
2007,06,25,06,32,9.30
2007,06,25,06,33,9.30
2007,06,25,06,34,9.30
2007,06,25,06,35,9.30
2007,06,25,06,36,9.30
2007,06,25,06,37,9.30
2007,06,25,06,38,9.30
2007,06,25,06,39,9.30
2007,06,25,06,40,9.30
2007,06,25,06,41,9.30
2007,06,25,06,42,9.30
2007,06,25,06,43,9.40
2007,06,25,06,44,9.40
2007,06,25,06,45,9.40
2007,06,25,06,46,9.40
2007,06,25,06,47,9.40
2007,06,25,06,48,9.50
2007,06,25,06,49,9.50
2007,06,25,06,50,9.60
2007,06,25,06,51,9.60
2007,06,25,06,52,9.60
2007,06,25,06,53,9.60
2007,06,25,06,54,9.70
2007,06,25,06,55,9.70
2007,06,25,06,56,9.80
2007,06,25,06,57,9.80
2007,06,25,06,58,9.80
2007,06,25,06,59,9.90
2007,06,25,07,00,9.90
2007,06,25,07,01,9.90
2007,06,25,07,02,10.00
2007,06,25,07,03,10.00
2007,06,25,07,04,10.00
2007,06,25,07,05,10.00
2007,06,25,07,06,10.00
2007,06,25,07,07,10.00
2007,06,25,07,08,10.00
2007,06,25,07,09,10.00
2007,06,25,07,10,10.00
2007,06,25,07,11,10.00
2007,06,25,07,12,10.00
2007,06,25,07,13,10.10
2007,06,25,07,14,10.10
2007,06,25,07,15,10.20
2007,06,25,07,16,10.30
2007,06,25,07,17,10.30
2007,06,25,07,18,10.30
2007,06,25,07,19,10.40
2007,06,25,07,20,10.40
2007,06,25,07,21,10.40
2007,06,25,07,22,10.50
2007,06,25,07,23,10.50
2007,06,25,07,24,10.50
2007,06,25,07,25,10.60
2007,06,25,07,26,10.60
2007,06,25,07,27,10.70
2007,06,25,07,28,10.70
2007,06,25,07,29,10.70
2007,06,25,07,30,10.70
2007,06,25,07,31,10.80
2007,06,25,07,32,10.80
2007,06,25,07,33,10.80
2007,06,25,07,34,10.90
2007,06,25,07,35,10.90
2007,06,25,07,36,11.00
2007,06,25,07,37,11.10
2007,06,25,07,38,11.20
2007,06,25,07,39,11.30
2007,06,25,07,40,11.40
2007,06,25,07,41,11.50
2007,06,25,07,42,11.60
2007,06,25,07,43,11.70
2007,06,25,07,44,11.80
2007,06,25,07,45,11.80
2007,06,25,07,46,11.90
2007,06,25,07,47,12.10
2007,06,25,07,48,12.20
2007,06,25,07,49,12.30
2007,06,25,07,50,12.40
2007,06,25,07,51,12.50
2007,06,25,07,52,12.50
2007,06,25,07,53,12.60
2007,06,25,07,54,12.70
2007,06,25,07,55,12.70
2007,06,25,07,56,12.70
2007,06,25,07,57,12.70
2007,06,25,07,58,12.70
2007,06,25,07,59,12.60
2007,06,25,08,00,12.60
2007,06,25,08,01,12.50
2007,06,25,08,02,12.40
2007,06,25,08,03,12.40
2007,06,25,08,04,12.40
2007,06,25,08,05,12.40
2007,06,25,08,06,12.40
2007,06,25,08,07,12.30
2007,06,25,08,08,12.30
2007,06,25,08,09,12.30
2007,06,25,08,10,12.30
2007,06,25,08,11,12.30
2007,06,25,08,12,12.30
2007,06,25,08,13,12.30
2007,06,25,08,14,12.30
2007,06,25,08,15,12.30
2007,06,25,08,16,12.30
2007,06,25,08,17,12.30
2007,06,25,08,18,12.30
2007,06,25,08,19,12.30
2007,06,25,08,20,12.30
2007,06,25,08,21,12.30
2007,06,25,08,22,12.30
2007,06,25,08,23,12.30
2007,06,25,08,24,12.30
2007,06,25,08,25,12.30
2007,06,25,08,26,12.30
2007,06,25,08,27,12.30
2007,06,25,08,28,12.30
2007,06,25,08,29,12.40
2007,06,25,08,30,12.40
2007,06,25,08,31,12.50
2007,06,25,08,32,12.50
2007,06,25,08,33,12.60
2007,06,25,08,34,12.70
2007,06,25,08,35,12.70
2007,06,25,08,36,12.80
2007,06,25,08,37,12.80
2007,06,25,08,38,12.80
2007,06,25,08,39,12.90
2007,06,25,08,40,12.90
2007,06,25,08,41,13.10
2007,06,25,08,42,13.30
2007,06,25,08,43,13.40
2007,06,25,08,44,13.50
2007,06,25,08,45,13.60
2007,06,25,08,46,13.60
2007,06,25,08,47,13.70
2007,06,25,08,48,13.70
2007,06,25,08,49,13.70
2007,06,25,08,50,13.70
2007,06,25,08,51,13.80
2007,06,25,08,52,13.80
2007,06,25,08,53,13.80
2007,06,25,08,54,13.80
2007,06,25,08,55,13.80
2007,06,25,08,56,13.80
2007,06,25,08,57,13.80
2007,06,25,08,58,13.80
2007,06,25,08,59,13.80
2007,06,25,09,00,13.80
2007,06,25,09,01,13.80
2007,06,25,09,02,13.80
2007,06,25,09,03,13.80
2007,06,25,09,04,13.70
2007,06,25,09,05,13.70
2007,06,25,09,06,13.70
2007,06,25,09,07,13.70
2007,06,25,09,08,13.80
2007,06,25,09,09,13.80
2007,06,25,09,10,13.80
2007,06,25,09,11,13.70
2007,06,25,09,12,13.70
2007,06,25,09,13,13.70
2007,06,25,09,14,13.70
2007,06,25,09,15,13.70
2007,06,25,09,16,13.70
2007,06,25,09,17,13.70
2007,06,25,09,18,13.70
2007,06,25,09,19,13.80
2007,06,25,09,20,13.80
2007,06,25,09,21,13.90
2007,06,25,09,22,14.00
2007,06,25,09,23,14.10
2007,06,25,09,24,14.10
2007,06,25,09,25,14.20
2007,06,25,09,26,14.40
2007,06,25,09,27,14.50
2007,06,25,09,28,14.50
2007,06,25,09,29,14.50
2007,06,25,09,30,14.50
2007,06,25,09,31,14.90
2007,06,25,09,32,15.00
2007,06,25,09,33,15.00
2007,06,25,09,34,15.00
2007,06,25,09,35,14.90
2007,06,25,09,36,14.90
2007,06,25,09,37,14.90
2007,06,25,09,38,14.80
2007,06,25,09,39,14.70
2007,06,25,09,40,14.70
2007,06,25,09,41,14.80
2007,06,25,09,42,14.80
2007,06,25,09,43,14.80
2007,06,25,09,44,14.80
2007,06,25,09,45,14.70
2007,06,25,09,46,14.60
2007,06,25,09,47,14.60
2007,06,25,09,48,14.60
2007,06,25,09,49,14.50
2007,06,25,09,50,14.40
2007,06,25,09,51,14.30
2007,06,25,09,52,14.30
2007,06,25,09,53,14.40
2007,06,25,09,54,14.50
2007,06,25,09,55,14.60
2007,06,25,09,56,14.80
2007,06,25,09,57,14.90
2007,06,25,09,58,14.90
2007,06,25,09,59,14.90
2007,06,25,10,00,14.80
2007,06,25,10,01,14.80
2007,06,25,10,02,14.90
2007,06,25,10,03,15.00
2007,06,25,10,04,15.00
2007,06,25,10,05,15.00
2007,06,25,10,06,15.00
2007,06,25,10,07,15.00
2007,06,25,10,08,15.10
2007,06,25,10,09,15.20
2007,06,25,10,10,15.20
2007,06,25,10,11,15.10
2007,06,25,10,12,15.00
2007,06,25,10,13,14.90
2007,06,25,10,14,14.80
2007,06,25,10,15,14.70
2007,06,25,10,16,14.60
2007,06,25,10,17,14.50
2007,06,25,10,18,14.50
2007,06,25,10,19,14.60
2007,06,25,10,20,14.60
2007,06,25,10,21,14.70
2007,06,25,10,22,14.70
2007,06,25,10,23,14.60
2007,06,25,10,24,14.60
2007,06,25,10,25,14.50
2007,06,25,10,26,14.40
2007,06,25,10,27,14.30
2007,06,25,10,28,14.40
2007,06,25,10,29,14.50
2007,06,25,10,30,14.60
2007,06,25,10,31,14.60
2007,06,25,10,32,14.70
2007,06,25,10,33,14.70
2007,06,25,10,34,14.60
2007,06,25,10,35,14.40
2007,06,25,10,36,14.30
2007,06,25,10,37,14.30
2007,06,25,10,38,14.30
2007,06,25,10,39,14.40
2007,06,25,10,40,14.50
2007,06,25,10,41,14.50
2007,06,25,10,42,14.50
2007,06,25,10,43,14.50
2007,06,25,10,44,14.60
2007,06,25,10,45,14.70
2007,06,25,10,46,14.80
2007,06,25,10,47,15.00
2007,06,25,10,48,14.90
2007,06,25,10,49,14.80
2007,06,25,10,50,14.60
2007,06,25,10,51,14.50
2007,06,25,10,52,14.40
2007,06,25,10,53,14.30
2007,06,25,10,54,14.30
2007,06,25,10,55,14.30
2007,06,25,10,56,14.20
2007,06,25,10,57,14.20
2007,06,25,10,58,14.10
2007,06,25,10,59,14.00
2007,06,25,11,00,14.00
2007,06,25,11,01,14.10
2007,06,25,11,02,14.10
2007,06,25,11,03,14.20
2007,06,25,11,04,14.30
2007,06,25,11,05,14.20
2007,06,25,11,06,14.20
2007,06,25,11,07,14.10
2007,06,25,11,08,14.20
2007,06,25,11,09,14.30
2007,06,25,11,10,14.30
2007,06,25,11,11,14.30
2007,06,25,11,12,14.30
2007,06,25,11,13,14.30
2007,06,25,11,14,14.30
2007,06,25,11,15,14.40
2007,06,25,11,16,14.40
2007,06,25,11,17,14.60
2007,06,25,11,18,14.70
2007,06,25,11,19,14.90
2007,06,25,11,20,15.00
2007,06,25,11,21,15.00
2007,06,25,11,22,14.90
2007,06,25,11,23,14.80
2007,06,25,11,24,14.70
2007,06,25,11,25,14.70
2007,06,25,11,26,14.80
2007,06,25,11,27,14.80
2007,06,25,11,28,14.80
2007,06,25,11,29,14.90
2007,06,25,11,30,14.90
2007,06,25,11,31,14.90
2007,06,25,11,32,14.80
2007,06,25,11,33,14.80
2007,06,25,11,34,14.80
2007,06,25,11,35,14.80
2007,06,25,11,36,14.70
2007,06,25,11,37,14.70
2007,06,25,11,38,14.70
2007,06,25,11,39,14.70
2007,06,25,11,40,14.80
2007,06,25,11,41,14.80
2007,06,25,11,42,14.70
2007,06,25,11,43,14.60
2007,06,25,11,44,14.50
2007,06,25,11,45,14.40
2007,06,25,11,46,14.30
2007,06,25,11,47,14.30
2007,06,25,11,48,14.30
2007,06,25,11,49,14.30
2007,06,25,11,50,14.30
2007,06,25,11,51,14.30
2007,06,25,11,52,14.30
2007,06,25,11,53,14.30
2007,06,25,11,54,14.20
2007,06,25,11,55,14.10
2007,06,25,11,56,14.10
2007,06,25,11,57,14.00
2007,06,25,11,58,14.00
2007,06,25,11,59,13.90
2007,06,25,12,00,14.00
2007,06,25,12,01,14.10
2007,06,25,12,02,14.20
2007,06,25,12,03,14.30
2007,06,25,12,04,14.30
2007,06,25,12,05,14.30
2007,06,25,12,06,14.40
2007,06,25,12,07,14.40
2007,06,25,12,08,14.50
2007,06,25,12,09,14.60
2007,06,25,12,10,14.60
2007,06,25,12,11,14.60
2007,06,25,12,12,14.70
2007,06,25,12,13,14.70
2007,06,25,12,14,14.70
2007,06,25,12,15,14.90
2007,06,25,12,16,15.10
2007,06,25,12,17,15.30
2007,06,25,12,18,15.40
2007,06,25,12,19,15.60
2007,06,25,12,20,15.60
2007,06,25,12,21,15.70
2007,06,25,12,22,15.70
2007,06,25,12,23,15.70
2007,06,25,12,24,15.80
2007,06,25,12,25,15.70
2007,06,25,12,26,15.80
2007,06,25,12,27,15.80
2007,06,25,12,28,15.80
2007,06,25,12,29,15.80
2007,06,25,12,30,15.80
2007,06,25,12,31,15.70
2007,06,25,12,32,15.60
2007,06,25,12,33,15.50
2007,06,25,12,34,15.40
2007,06,25,12,35,15.30
2007,06,25,12,36,15.30
2007,06,25,12,37,15.40
2007,06,25,12,38,15.40
2007,06,25,12,39,15.50
2007,06,25,12,40,15.50
2007,06,25,12,41,15.60
2007,06,25,12,42,15.60
2007,06,25,12,43,15.50
2007,06,25,12,44,15.40
2007,06,25,12,45,15.40
2007,06,25,12,46,15.40
2007,06,25,12,47,15.30
2007,06,25,12,48,15.30
2007,06,25,12,49,15.40
2007,06,25,12,50,15.40
2007,06,25,12,51,15.40
2007,06,25,12,52,15.40
2007,06,25,12,53,15.40
2007,06,25,12,54,15.30
2007,06,25,12,55,15.40
2007,06,25,12,56,15.40
2007,06,25,12,57,15.40
2007,06,25,12,58,15.40
2007,06,25,12,59,15.40
2007,06,25,13,00,15.40
2007,06,25,13,01,15.50
2007,06,25,13,02,15.50
2007,06,25,13,03,15.60
2007,06,25,13,04,15.60
2007,06,25,13,05,15.60
2007,06,25,13,06,15.50
2007,06,25,13,07,15.50
2007,06,25,13,08,15.50
2007,06,25,13,09,15.50
2007,06,25,13,10,15.50
2007,06,25,13,11,15.60
2007,06,25,13,12,15.60
2007,06,25,13,13,15.70
2007,06,25,13,14,15.70
2007,06,25,13,15,15.70
2007,06,25,13,16,15.70
2007,06,25,13,17,15.80
2007,06,25,13,18,15.80
2007,06,25,13,19,15.90
2007,06,25,13,20,15.90
2007,06,25,13,21,16.00
2007,06,25,13,22,16.00
2007,06,25,13,23,16.00
2007,06,25,13,24,16.00
2007,06,25,13,25,16.00
2007,06,25,13,26,16.10
2007,06,25,13,27,16.20
2007,06,25,13,28,16.20
2007,06,25,13,29,16.30
2007,06,25,13,30,16.30
2007,06,25,13,31,16.30
2007,06,25,13,32,16.30
2007,06,25,13,33,16.30
2007,06,25,13,34,16.20
2007,06,25,13,35,16.20
2007,06,25,13,36,16.10
2007,06,25,13,37,16.10
2007,06,25,13,38,16.10
2007,06,25,13,39,16.10
2007,06,25,13,40,16.30
2007,06,25,13,41,16.40
2007,06,25,13,42,16.40
2007,06,25,13,43,16.50
2007,06,25,13,44,16.50
2007,06,25,13,45,16.60
2007,06,25,13,46,16.70
2007,06,25,13,47,16.70
2007,06,25,13,48,16.70
2007,06,25,13,49,16.70
2007,06,25,13,50,16.70
2007,06,25,13,51,16.50
2007,06,25,13,52,16.50
2007,06,25,13,53,16.50
2007,06,25,13,54,16.20
2007,06,25,13,55,16.10
2007,06,25,13,56,16.10
2007,06,25,13,57,16.20
2007,06,25,13,58,16.30
2007,06,25,13,59,16.40
2007,06,25,14,00,16.50
2007,06,25,14,01,16.60
2007,06,25,14,02,16.60
2007,06,25,14,03,16.60
2007,06,25,14,04,16.50
2007,06,25,14,05,16.50
2007,06,25,14,06,16.50
2007,06,25,14,07,16.50
2007,06,25,14,08,16.50
2007,06,25,14,09,16.40
2007,06,25,14,10,16.40
2007,06,25,14,11,16.40
2007,06,25,14,12,16.40
2007,06,25,14,13,16.50
2007,06,25,14,14,16.60
2007,06,25,14,15,16.70
2007,06,25,14,16,16.80
2007,06,25,14,17,16.90
2007,06,25,14,18,17.10
2007,06,25,14,19,17.20
2007,06,25,14,20,17.30
2007,06,25,14,21,17.20
2007,06,25,14,22,17.10
2007,06,25,14,23,17.00
2007,06,25,14,24,17.00
2007,06,25,14,25,17.00
2007,06,25,14,26,16.90
2007,06,25,14,27,16.90
2007,06,25,14,28,17.00
2007,06,25,14,29,17.00
2007,06,25,14,30,17.10
2007,06,25,14,31,17.30
2007,06,25,14,32,17.40
2007,06,25,14,33,17.40
2007,06,25,14,34,17.30
2007,06,25,14,35,17.40
2007,06,25,14,36,17.40
2007,06,25,14,37,17.30
2007,06,25,14,38,17.20
2007,06,25,14,39,17.10
2007,06,25,14,40,17.10
2007,06,25,14,41,17.20
2007,06,25,14,42,17.20
2007,06,25,14,43,17.30
2007,06,25,14,44,17.20
2007,06,25,14,45,17.20
2007,06,25,14,46,17.30
2007,06,25,14,47,17.40
2007,06,25,14,48,17.50
2007,06,25,14,49,17.60
2007,06,25,14,50,17.50
2007,06,25,14,51,17.50
2007,06,25,14,52,17.50
2007,06,25,14,53,17.60
2007,06,25,14,54,17.50
2007,06,25,14,55,17.40
2007,06,25,14,56,17.40
2007,06,25,14,57,17.40
2007,06,25,14,58,17.50
2007,06,25,14,59,17.80
2007,06,25,15,00,18.00
2007,06,25,15,01,18.00
2007,06,25,15,02,18.00
2007,06,25,15,03,17.80
2007,06,25,15,04,17.70
2007,06,25,15,05,17.70
2007,06,25,15,06,17.70
2007,06,25,15,07,17.70
2007,06,25,15,08,17.70
2007,06,25,15,09,17.70
2007,06,25,15,10,17.70
2007,06,25,15,11,17.60
2007,06,25,15,12,17.60
2007,06,25,15,13,17.60
2007,06,25,15,14,17.60
2007,06,25,15,15,17.40
2007,06,25,15,16,17.30
2007,06,25,15,17,17.30
2007,06,25,15,18,17.20
2007,06,25,15,19,17.20
2007,06,25,15,20,17.20
2007,06,25,15,21,17.40
2007,06,25,15,22,17.50
2007,06,25,15,23,17.60
2007,06,25,15,24,17.70
2007,06,25,15,25,17.70
2007,06,25,15,26,17.80
2007,06,25,15,27,17.80
2007,06,25,15,28,17.90
2007,06,25,15,29,17.90
2007,06,25,15,30,17.90
2007,06,25,15,31,18.00
2007,06,25,15,32,18.00
2007,06,25,15,33,17.90
2007,06,25,15,34,17.80
2007,06,25,15,35,17.70
2007,06,25,15,36,17.80
2007,06,25,15,37,17.80
2007,06,25,15,38,17.70
2007,06,25,15,39,17.60
2007,06,25,15,40,17.50
2007,06,25,15,41,17.60
2007,06,25,15,42,17.70
2007,06,25,15,43,17.70
2007,06,25,15,44,17.70
2007,06,25,15,45,17.60
2007,06,25,15,46,17.60
2007,06,25,15,47,17.60
2007,06,25,15,48,17.60
2007,06,25,15,49,17.60
2007,06,25,15,50,17.60
2007,06,25,15,51,17.80
2007,06,25,15,52,17.80
2007,06,25,15,53,17.80
2007,06,25,15,54,17.70
2007,06,25,15,55,17.70
2007,06,25,15,56,17.80
2007,06,25,15,57,17.80
2007,06,25,15,58,17.80
2007,06,25,15,59,17.80
2007,06,25,16,00,17.70
2007,06,25,16,01,17.70
2007,06,25,16,02,17.70
2007,06,25,16,03,17.60
2007,06,25,16,04,17.60
2007,06,25,16,05,17.60
2007,06,25,16,06,17.60
2007,06,25,16,07,17.60
2007,06,25,16,08,17.60
2007,06,25,16,09,17.50
2007,06,25,16,10,17.50
2007,06,25,16,11,17.50
2007,06,25,16,12,17.50
2007,06,25,16,13,17.50
2007,06,25,16,14,17.50
2007,06,25,16,15,17.50
2007,06,25,16,16,17.50
2007,06,25,16,17,17.40
2007,06,25,16,18,17.40
2007,06,25,16,19,17.30
2007,06,25,16,20,17.30
2007,06,25,16,21,17.40
2007,06,25,16,22,17.40
2007,06,25,16,23,17.30
2007,06,25,16,24,17.30
2007,06,25,16,25,17.30
2007,06,25,16,26,17.20
2007,06,25,16,27,17.30
2007,06,25,16,28,17.30
2007,06,25,16,29,17.20
2007,06,25,16,30,17.20
2007,06,25,16,31,17.20
2007,06,25,16,32,17.20
2007,06,25,16,33,17.30
2007,06,25,16,34,17.40
2007,06,25,16,35,17.50
2007,06,25,16,36,17.40
2007,06,25,16,37,17.40
2007,06,25,16,38,17.40
2007,06,25,16,39,17.50
2007,06,25,16,40,17.60
2007,06,25,16,41,17.70
2007,06,25,16,42,17.70
2007,06,25,16,43,17.70
2007,06,25,16,44,17.70
2007,06,25,16,45,17.70
2007,06,25,16,46,17.70
2007,06,25,16,47,17.60
2007,06,25,16,48,17.50
2007,06,25,16,49,17.30
2007,06,25,16,50,17.30
2007,06,25,16,51,17.30
2007,06,25,16,52,17.30
2007,06,25,16,53,17.30
2007,06,25,16,54,17.40
2007,06,25,16,55,17.40
2007,06,25,16,56,17.40
2007,06,25,16,57,17.40
2007,06,25,16,58,17.50
2007,06,25,16,59,17.50
2007,06,25,17,00,17.60
2007,06,25,17,01,17.60
2007,06,25,17,02,17.60
2007,06,25,17,03,17.60
2007,06,25,17,04,17.60
2007,06,25,17,05,17.60
2007,06,25,17,06,17.60
2007,06,25,17,07,17.60
2007,06,25,17,08,17.70
2007,06,25,17,09,17.70
2007,06,25,17,10,17.80
2007,06,25,17,11,17.80
2007,06,25,17,12,17.90
2007,06,25,17,13,17.90
2007,06,25,17,14,17.90
2007,06,25,17,15,17.90
2007,06,25,17,16,17.90
2007,06,25,17,17,17.90
2007,06,25,17,18,17.90
2007,06,25,17,19,17.80
2007,06,25,17,20,17.80
2007,06,25,17,21,17.80
2007,06,25,17,22,17.70
2007,06,25,17,23,17.60
2007,06,25,17,24,17.50
2007,06,25,17,25,17.40
2007,06,25,17,26,17.30
2007,06,25,17,27,17.30
2007,06,25,17,28,17.30
2007,06,25,17,29,17.30
2007,06,25,17,30,17.30
2007,06,25,17,31,17.30
2007,06,25,17,32,17.40
2007,06,25,17,33,17.40